Location: Dugenta
(41.1333°N, 14.4500°E)
Time: 14:29:50
(UTC+00:00)

Cosmos 1486 Rocket - Pass Details

Date: 03 March 2021
Orbit: 758 x 784 km, 74.1° (Epoch: 12 April)

Event Time Altitude Azimuth Distance (km) Brightness Sun altitude
Rises 17:54:00 0° 339° (NNW) 3,255 7.6 -11.8°
Reaches altitude 10° 17:56:23 10° 339° (NNW) 2,328 6.8 -12.3°
Maximum altitude 18:01:41 81° 253° (WSW) 792 4.1 -13.3°
Drops below altitude 10° 18:06:59 10° 166° (SSE) 2,327 6.3 -14.2°
Sets 18:09:21 0° 165° (SSE) 3,253 7.1 -14.7°
